Time,TemperatureF,DewpointF,PressureIn,WindDirection,WindDirectionDegrees,WindSpeedMPH,WindSpeedGustMPH,Humidity,HourlyPrecipIn,Conditions,Clouds,dailyrainin,SoftwareType,DateUTC
2014-10-31 00:23:00,40.0,35.0,30.03,WSW,248,0.0,0.0,83,0.00,,,0.00,,2014-10-31 04:23:00,
2014-10-31 00:53:00,40.0,35.0,30.03,SE,143,0.0,1.0,83,0.00,,,0.00,,2014-10-31 04:53:00,
2014-10-31 01:23:00,41.0,37.0,30.03,South,191,0.0,0.0,84,0.00,,,0.00,,2014-10-31 05:23:00,
2014-10-31 01:53:00,41.0,37.0,30.03,South,191,0.0,0.0,84,0.00,,,0.00,,2014-10-31 05:53:00,
2014-10-31 02:12:00,41.0,37.0,30.02,South,191,0.0,0.0,84,0.00,,,0.00,,2014-10-31 06:12:00,
2014-10-31 02:22:00,41.0,37.0,30.02,South,191,0.0,0.0,84,0.00,,,0.00,,2014-10-31 06:22:00,
2014-10-31 02:42:00,42.0,38.0,30.02,South,191,0.0,0.0,84,0.00,,,0.00,,2014-10-31 06:42:00,
2014-10-31 02:52:00,42.0,37.0,30.02,SE,145,0.0,2.0,83,0.00,,,0.00,,2014-10-31 06:52:00,
2014-10-31 03:22:00,42.0,38.0,30.02,SSE,159,0.0,0.0,84,0.00,,,0.00,,2014-10-31 07:22:00,
2014-10-31 03:52:00,42.0,37.0,30.01,SSW,212,0.0,0.0,83,0.00,,,0.00,,2014-10-31 07:52:00,
2014-10-31 04:22:00,42.0,38.0,30.01,SSE,165,0.0,0.0,85,0.00,,,0.00,,2014-10-31 08:22:00,
2014-10-31 04:43:00,42.0,38.0,30.00,SSE,165,0.0,0.0,86,0.00,,,0.00,,2014-10-31 08:43:00,
2014-10-31 04:52:00,42.0,38.0,30.00,SSE,165,0.0,0.0,87,0.00,,,0.00,,2014-10-31 08:52:00,
2014-10-31 05:12:00,42.0,39.0,29.99,SSE,165,0.0,0.0,88,0.00,,,0.00,,2014-10-31 09:12:00,
2014-10-31 05:23:00,42.0,39.0,29.99,SSE,165,0.0,0.0,88,0.00,,,0.00,,2014-10-31 09:23:00,
2014-10-31 05:43:00,42.0,39.0,29.99,SSE,163,0.0,0.0,88,0.00,,,0.00,,2014-10-31 09:43:00,
2014-10-31 05:53:00,42.0,39.0,29.98,SSE,163,0.0,0.0,88,0.00,,,0.00,,2014-10-31 09:53:00,
2014-10-31 06:23:00,42.0,39.0,29.98,SE,138,0.0,2.0,88,0.00,,,0.00,,2014-10-31 10:23:00,
2014-10-31 06:52:00,42.0,39.0,29.98,SSE,148,0.0,4.0,88,0.00,,,0.00,,2014-10-31 10:52:00,
2014-10-31 07:22:00,42.0,39.0,29.97,SSW,212,0.0,3.0,88,0.00,,,0.00,,2014-10-31 11:22:00,
2014-10-31 07:42:00,42.0,39.0,29.97,SSE,167,0.0,2.0,88,0.00,,,0.00,,2014-10-31 11:42:00,
2014-10-31 07:52:00,42.0,39.0,29.97,SE,142,0.0,0.0,88,0.00,,,0.00,,2014-10-31 11:52:00,
2014-10-31 08:22:00,42.0,39.0,29.97,SE,142,0.0,0.0,88,0.00,,,0.00,,2014-10-31 12:22:00,
2014-10-31 08:42:00,42.0,39.0,29.97,SE,142,0.0,0.0,89,0.00,,,0.00,,2014-10-31 12:42:00,
2014-10-31 08:52:00,42.0,39.0,29.97,SE,143,0.0,0.0,89,0.00,,,0.00,,2014-10-31 12:52:00,
2014-10-31 09:22:00,42.0,39.0,29.96,SE,143,0.0,0.0,89,0.00,,,0.00,,2014-10-31 13:22:00,
2014-10-31 09:42:00,43.0,40.0,29.96,South,175,0.0,2.0,89,0.00,,,0.00,,2014-10-31 13:42:00,
2014-10-31 09:52:00,43.0,40.0,29.96,South,170,1.0,4.0,89,0.00,,,0.00,,2014-10-31 13:52:00,
2014-10-31 10:22:00,43.0,40.0,29.96,SSE,152,0.0,3.0,89,0.00,,,0.00,,2014-10-31 14:22:00,
2014-10-31 10:53:00,44.0,41.0,29.95,WSW,245,1.0,4.0,88,0.00,,,0.00,,2014-10-31 14:53:00,
2014-10-31 11:22:00,46.0,42.0,29.95,WSW,246,2.0,5.0,87,0.00,,,0.00,,2014-10-31 15:22:00,
2014-10-31 11:43:00,46.0,42.0,29.94,West,263,3.0,6.0,86,0.00,,,0.00,,2014-10-31 15:43:00,
2014-10-31 11:53:00,46.0,42.0,29.94,WSW,246,3.0,6.0,86,0.00,,,0.00,,2014-10-31 15:53:00,
2014-10-31 12:24:00,46.0,42.0,29.93,WSW,240,2.0,6.0,85,0.00,,,0.00,,2014-10-31 16:24:00,
2014-10-31 12:44:00,46.0,42.0,29.93,WSW,253,2.0,5.0,86,0.00,,,0.00,,2014-10-31 16:44:00,
2014-10-31 12:53:00,46.0,42.0,29.92,WNW,300,1.0,4.0,87,0.00,,,0.00,,2014-10-31 16:53:00,
2014-10-31 13:23:00,45.0,41.0,29.92,WNW,288,3.0,11.0,86,0.02,,,0.02,,2014-10-31 17:23:00,
2014-10-31 13:54:00,44.0,41.0,29.90,West,279,1.0,5.0,88,0.03,,,0.03,,2014-10-31 17:54:00,
2014-10-31 14:22:00,43.0,40.0,29.90,West,271,2.0,13.0,89,0.04,,,0.06,,2014-10-31 18:22:00,
2014-10-31 14:42:00,43.0,40.0,29.89,WNW,290,1.0,9.0,89,0.05,,,0.07,,2014-10-31 18:42:00,
2014-10-31 14:52:00,41.0,38.0,29.90,West,277,2.0,11.0,88,0.05,,,0.08,,2014-10-31 18:52:00,
2014-10-31 15:22:00,40.0,37.0,29.90,WNW,296,3.0,14.0,89,0.05,,,0.11,,2014-10-31 19:22:00,
2014-10-31 15:42:00,39.0,36.0,29.90,NW,316,2.0,12.0,89,0.06,,,0.13,,2014-10-31 19:42:00,
2014-10-31 15:52:00,39.0,36.0,29.91,West,259,4.0,10.0,89,0.04,,,0.13,,2014-10-31 19:52:00,
2014-10-31 16:12:00,39.0,36.0,29.91,WNW,302,1.0,9.0,89,0.03,,,0.13,,2014-10-31 20:12:00,